Regional Weather Roundup
Issued by NWS

Home | Current Version | Previous Version | Graphics & Text | Print | Product List | Glossary On
Versions: 1 2 3 4 5 6 7 8 9 10 11 12 13 14 15 16 17 18 19 20 21 22 23 24 25 26 27 28 29 30 31 32 33 34 35 36 37 38 39 40 41 42 43 44 45 46 47 48 49 50
000
ASUS43 KLSX 260110
RWRMO

WEATHER SUMMARY FOR MISSOURI
NATIONAL WEATHER SERVICE SPRINGFIELD MO
800 PM CDT SUN JUN 25 2017

NOTE: "FAIR" INDICATES FEW OR NO CLOUDS BELOW 12,000 FEET WITH NO
       SIGNIFICANT WEATHER AND/OR OBSTRUCTIONS TO VISIBILITY.
       CURRENT SKY AND/OR WEATHER CONDITIONS ARE NOT AVAILABLE FOR
       CHILLICOTHE AND FARMINGTON.

MOZ001>031-035>038-043-044-053-054-260200-
...NORTHERN AND WESTERN MISSOURI...

CITY           SKY/WX    TMP DP  RH WIND       PRES   REMARKS
KANSAS CTY INT PTCLDY    65  52  62 W8        30.23F
KANSAS C DTWN  PTCLDY    66  53  63 SW6       30.23F
LEE`S SUMMIT   CLOUDY    65  53  65 W5        30.25F
ST JOSEPH      CLEAR     70  51  51 SW7       30.22S
CHILLICOTHE      N/A     73  48  41 CALM      30.22F
KIRKSVILLE     CLEAR     69  47  45 W6        30.21F

$$
MOZ066>068-077>081-088>096-101>105-260200-
...SOUTHWEST MISSOURI...

CITY           SKY/WX    TMP DP  RH WIND       PRES   REMARKS
SPRINGFIELD    CLEAR     75  57  53 N9        30.22F
JOPLIN         CLOUDY    75  59  57 N13       30.22S
BRANSON        PTCLDY    77  57  50 N6        30.23S

$$
MOZ032>034-039>042-045>050-055>058-069>072-260200-
...CENTRAL MISSOURI...

CITY           SKY/WX    TMP DP  RH WIND       PRES   REMARKS
COLUMBIA       CLOUDY    72  51  47 NW7       30.21S
JEFFERSON CITY CLOUDY    74  51  44 W7        30.20S
ROLLA          CLOUDY    71  53  52 NW7       30.20F
SEDALIA        CLOUDY    67  52  58 W9        30.23F
WHITEMAN AFB   CLOUDY    65  52  61 W7        30.22F
WARRENSBURG    DRIZZLE   63  50  63 W8        30.24F
OSAGE BEACH    CLOUDY    73  53  49 VRB5      30.22F

$$
MOZ051-052-059>065-260200-
...EAST CENTRAL MISSOURI...

CITY           SKY/WX    TMP DP  RH WIND       PRES   REMARKS
ST LOUIS INTL  MOCLDY    76  46  34 NW12      30.18R
SPIRIT OF STL  PTCLDY    74  48  39 NW10      30.17R
ST CHARLES     CLEAR     74  46  36 NW8       30.17R

$$
MOZ072>076-082>087-097>100-106>115-260200-
...SOUTH CENTRAL AND SOUTHEAST MISSOURI...

CITY           SKY/WX    TMP DP  RH WIND       PRES   REMARKS
CAPE GIRARDEAU CLEAR     79  51  37 NW6       30.15R
FARMINGTON     CLEAR     75  51  43 W3        30.19S
POPLAR BLUFF   CLEAR     78  61  55 S5        30.15S
WEST PLAINS    CLEAR     76  52  43 NW5       30.22S

$$




USA.gov is the U.S. government's official web portal to all federal, state and local government web resources and services.